Location: Cossonay
(46.5833°N, 6.4167°E)
Time: 04:19:02
(UTC+00:00)

Cosmos 1758 Rocket - Pass Details

Date: 07 June 2020
Orbit: 603 x 635 km, 82.5° (Epoch: 04 July)

Event Time Altitude Azimuth Distance (km) Brightness Sun altitude
Exits shadow 00:15:27 48° 167° (SSE) 809 3.7 -20.0°
Maximum altitude 00:16:35 74° 97° (E) 649 3.6 -19.9°
Drops below altitude 10° 00:21:01 10° 13° (NNE) 2,008 7.4 -19.8°
Sets 00:23:17 0° 11° (NNE) 2,925 8.7 -19.7°
